Cancun, Mexico

2:02 PM on May 25, 2017 (GMT +0000)
Cancun International

Weather History for MMUN - May, 2013

Change the Weather History Date:

Monday, May 20, 2013

  Actual Average Record
Temperature  
Mean Temperature 84 °F -  
Max Temperature 87 °F 88 °F 93 °F (2003)
Min Temperature 80 °F 74 °F 64 °F (2007)
Cooling Degree Days 18    
Growing Degree Days 34 (Base 50)    
Moisture  
Dew Point 75 °F    
Average Humidity 75    
Maximum Humidity 84    
Minimum Humidity 66    
Precipitation  
Precipitation 0.00 in - - ()
Sea Level Pressure  
Sea Level Pressure 29.93 in    
Wind  
Wind Speed 11 mph ()    
Max Wind Speed 17 mph    
Max Gust Speed -    
Visibility 7.0 miles    
Events      
Averages and records for this station are not official NWS values.
T = Trace of Precipitation, MM = Missing Value Source: Averaged Metar Reports

Daily Weather History Graph

Daily Weather History Graph

Search for Another Location

Airport or City:

Trip Planner

Search our weather history database for the weather conditions in past years. The results will help you decide how hot, cold, wet, or windy it might be!

Date:

Astronomy

May. 20, 2013 Rise Set
Actual Time 6:07 AM CDT 7:20 PM CDT
Civil Twilight 5:43 AM CDT 7:44 PM CDT
Nautical Twilight 5:15 AM CDT 8:13 PM CDT
Astronomical Twilight 4:45 AM CDT 8:42 PM CDT
Moon 3:00 PM CDT (5/20) 2:25 AM CDT (5/20)
Length of Visible Light 14h 00m
Length of Day
13h 12m
Waxing Gibbous, 75% of the Moon is Illuminated
May 20
Waxing Gibbous
May 24
Full
May 31
Last Quarter
Jun 8
New
Jun 16
First Quarter

Hourly Weather History & Observations

Time (CDT) Temp. Heat Index Dew Point Humidity Pressure Visibility Wind Dir Wind Speed Gust Speed Precip Events Conditions
12:45 AM 80.6 °F 85.4 °F 73.4 °F 79% 29.93 in 7.0 mi ESE 12.7 mph - N/A   Scattered Clouds
1:44 AM 80.6 °F 86.2 °F 75.2 °F 84% 29.93 in 7.0 mi SE 12.7 mph - N/A   Mostly Cloudy
2:43 AM 80.6 °F 85.4 °F 73.4 °F 79% 29.92 in 7.0 mi East 6.9 mph - N/A   Mostly Cloudy
3:46 AM 80.6 °F 86.2 °F 75.2 °F 84% 29.90 in 7.0 mi ESE 8.1 mph - N/A   Mostly Cloudy
4:45 AM 80.6 °F 85.4 °F 73.4 °F 79% 29.91 in 7.0 mi ESE 9.2 mph - N/A   Mostly Cloudy
5:44 AM 80.6 °F 85.4 °F 73.4 °F 79% 29.92 in 7.0 mi ESE 6.9 mph - N/A   Scattered Clouds
6:43 AM 82.4 °F 88.2 °F 73.4 °F 74% 29.93 in 7.0 mi ESE 11.5 mph - N/A   Scattered Clouds
7:41 AM 84.2 °F 92.3 °F 75.2 °F 74% 29.95 in 7.0 mi SE 17.3 mph - N/A   Scattered Clouds
8:42 AM 86.0 °F 95.1 °F 75.2 °F 70% 29.96 in 7.0 mi SE 13.8 mph - N/A   Mostly Cloudy
9:42 AM 86.0 °F 95.1 °F 75.2 °F 70% 29.97 in 7.0 mi SE 15.0 mph - N/A   Mostly Cloudy
10:41 AM 86.0 °F 95.1 °F 75.2 °F 70% 29.97 in 7.0 mi ESE 16.1 mph - N/A   Mostly Cloudy
11:43 AM 87.8 °F 97.6 °F 75.2 °F 66% 29.96 in 7.0 mi SE 17.3 mph - N/A   Mostly Cloudy
12:41 PM 86.0 °F 93.4 °F 73.4 °F 66% 29.96 in 7.0 mi SSE 16.1 mph - N/A   Mostly Cloudy
1:43 PM 87.8 °F 97.6 °F 75.2 °F 66% 29.94 in 7.0 mi SE 15.0 mph - N/A   Mostly Cloudy
2:48 PM 86.0 °F 95.1 °F 75.2 °F 70% 29.92 in 7.0 mi ESE 13.8 mph - N/A   Mostly Cloudy
3:43 PM 86.0 °F 95.1 °F 75.2 °F 70% 29.94 in 7.0 mi SE 16.1 mph - N/A   Mostly Cloudy
4:42 PM 86.0 °F 95.1 °F 75.2 °F 70% 29.89 in 7.0 mi SE 13.8 mph - N/A   Mostly Cloudy
5:47 PM 84.2 °F 92.3 °F 75.2 °F 74% 29.88 in 7.0 mi ESE 13.8 mph - N/A   Mostly Cloudy
6:46 PM 82.4 °F 89.5 °F 75.2 °F 79% 29.90 in 7.0 mi SE 12.7 mph - N/A   Scattered Clouds
7:42 PM 82.4 °F 89.5 °F 75.2 °F 79% 29.90 in 7.0 mi ESE 10.4 mph - N/A   Scattered Clouds
8:42 PM 82.4 °F 89.5 °F 75.2 °F 79% 29.92 in 7.0 mi ESE 9.2 mph - N/A   Scattered Clouds
9:45 PM 82.4 °F 89.5 °F 75.2 °F 79% 29.92 in 7.0 mi ESE 11.5 mph - N/A   Scattered Clouds
10:40 PM 80.6 °F 86.2 °F 75.2 °F 84% 29.93 in 7.0 mi ESE 9.2 mph - N/A   Scattered Clouds
11:42 PM 80.6 °F 86.2 °F 75.2 °F 84% 29.93 in 7.0 mi ESE 8.1 mph - N/A   Scattered Clouds